FENGYUN 1C DEB, 30683

Orbit data source: Space-Track

FENGYUN 1C DEB, 30683 is space debris in SSO originally from a launch on Mon, 10 May 1999 UTC launched from the Taiyaun Space Center, China (TSC). Fengyun 1C debris stems from the Chinese weather satellite Fengyun-1C, which was intentionally destroyed by a Chinese anti-satellite missile in 2007. This event dramatically increased the amount of space debris, with thousands of trackable fragments posing hazards to satellites and human spaceflight. The Fengyun 1C debris cloud has become a focal point in discussions about space sustainability and the need for international regulations to prevent the creation of new debris.

Loading next visibility...
Identifier
30683, 1999-025AQR
Orbit
SSO
Country
Flag of CNCN / PRC
Related business
Manufacturer
Unknown
Mission
Spacecraft
Bus & Motor
Unknown
Mass
Unknown
Launch date (UTC)
1999-05-10 (27 years ago)
Launch vehicle
Unknown
Launch site
Taiyaun Space Center, China (TSC)
Object type
Payload
Rocket body
Debris
Shape & HBR
Unknown shape, 0.1 m
Radar Cross Section
Small (<0.1 m²)

Expand to show TLE details & history
Last TLE update: 3 days ago

TLE from 3 days ago
0 FENGYUN 1C DEB
1 30683U 99025AQR 26234.99670238  .00001450  00000-0  91896-3 0  9992
2 30683  99.4059 259.1836 0135232 252.5563 134.9557 14.01271803990971
Epoch: 2026-08-22T23:55Z
TLE epoch observation values (Epoch: 2026-08-22T23:55:15.085Z)
Latitude
28.21983°
Longitude
-76.00195°
Altitude
962.932 km
Speed
7.337 km/s
True Right ascension
16h 56m 26s
True Declination
28° 04' 51"
Sunlit
Object was in daylight at epoch
Visualization orbit readout
Latitude
Unknown
Longitude
Unknown
Altitude
Unknown
Speed
Unknown
Apparent Right ascension
Unknown
Apparent Declination
Unknown
Sunlit
N/A
Visualization observer readout
Local Sidereal Time
09:21:47
Azimuth
Unknown
Elevation
Unknown
Doppler factor
Unknown
Orbital elements
Apogee altitude
984.854 km
Perigee altitude
788.369 km
Semi-major axis
7,264.749 km
Eccentricity
0.01352
Inclination
99.4059°
RAAN
259.1836°
Arg. of periapsis
252.5563°
True anomaly
136.0393°
Mean anomaly
134.9557°
Eccentric anomaly
135.49879°
Mean motion
3.5052 °/min
Orbital period
102.7 mins
BSTAR
0.00091896
Loading maneuver chart data...
Computing Atmospheric mass density...

Documentation

Showing up to 5 results
|